Regional Weather Roundup
Issued by NWS

Home | Current Version | Previous Version | Text Only | Print | Product List | Glossary Off
Versions: 1 2 3 4 5 6 7 8 9 10 11 12 13 14 15 16 17 18 19 20 21 22 23 24 25 26 27 28 29 30 31 32 33 34 35 36 37 38 39 40 41 42 43 44 45 46 47 48 49 50

836
ASUS43 KLMK 301402
RWRKY
KENTUCKY REGIONAL WEATHER ROUNDUP
NATIONAL WEATHER SERVICE LOUISVILLE KY
1000 AM EDT SAT JUL 30 2016

NOTE "FAIR" INDICATES FEW OR NO CLOUDS BELOW 12,000 FEET
WITH NO SIGNIFICANT WEATHER AND/OR OBSTRUCTIONS TO VISIBILITY.

KYZ001>023-026-027-061>063-070>075-301500-
WESTERN AND SOUTH CENTRAL KENTUCKY

CITY           SKY/WX    TMP DP  RH WIND       PRES   REMARKS
PADUCAH        MOSUNNY   75  70  84 SW6       29.99R
HENDERSON      PTSUNNY   79  72  78 W7        29.97R
OWENSBORO      PTSUNNY   76  74  93 S6        29.99R FOG
HOPKINSVILLE   CLOUDY    75  72  88 SW8       30.00S
BOWLING GREEN  CLOUDY    76  71  85 SW9       30.01R
GLASGOW        NOT AVBL
$$

KYZ024-025-028>034-038-045-046-053-301500-
NORTH CENTRAL KENTUCKY

CITY           SKY/WX    TMP DP  RH WIND       PRES   REMARKS
LOUISVILLE/SDF CLOUDY    76  70  82 S5        29.99R
LOUISVILLE/LOU PTSUNNY   76  70  82 W3        29.99S
FORT KNOX      CLOUDY    74  71  88 VRB5      29.99R
$$

KYZ035>037-039>044-047>052-055>060-089>105-301500-
NORTHEAST KENTUCKY

CITY           SKY/WX    TMP DP  RH WIND       PRES   REMARKS
LEXINGTON      PTSUNNY   75  70  84 W7        30.01R
COVINGTON      CLOUDY    73  72  96 W6        29.98S FOG
FRANKFORT      CLOUDY    73  70  90 W3        29.99R FOG
$$

KYZ054-064>069-076>088-106>120-301500-
SOUTHEAST KENTUCKY

CITY           SKY/WX    TMP DP  RH WIND       PRES   REMARKS
JACKSON        CLOUDY    72  70  93 CALM      30.03R
LONDON         CLOUDY    75  69  81 SW5       30.03R
SOMERSET       CLOUDY    73  72  94 SW3       30.03S
MIDDLESBORO    PTSUNNY   74  72  92 CALM      30.06R
MONTICELLO     CLOUDY   N/A N/A N/A NW9       30.05R
$$





USA.gov is the U.S. government's official web portal to all federal, state and local government web resources and services.